Weather in Krasnaya Tym

Russia / Sakhalin District     50˚47′14″N   142˚40′26″E
temp.,
°C
wind,
m/s
gust,
m/s
humid.,
%
clouds,
%
prec.,
mm/h
press.,
hPa
HPBL,
m
18 january, mon
mon1823:00−29˚n11910 0.0 101719
02:00−29˚n11890 0.0 101719
05:00−29˚n01890 0.0 101619
08:00−28˚nne019161 0.0 101619
11:00−24˚nnw119180 0.0 101663
14:00−21˚nw238477 0.0 1016413
17:00−22˚nnw129182 0.0 101445
20:00−27˚nne129312 0.0 101519
19 january, tue
tue1923:00−28˚nne11916 0.0 101519
02:00−29˚nne11900 0.0 101419
05:00−29˚n11900 0.0 101319
08:00−30˚n11900 0.0 101419
11:00−26˚nnw11870 0.0 101463
14:00−22˚wnw138019 0.0 1014633
17:00−22˚wnw138560 0.0 1013449
20:00−27˚wsw009189 0.0 101519
20 january, wed
wed2023:00−29˚ne019151 0.0 101519
02:00−29˚n01935 0.0 101519
05:00−30˚nne11954 0.0 101620
08:00−30˚nne11934 0.0 101721
11:00−27˚nnw01862 0.0 101969
14:00−21˚nw14730 0.0 1018466
17:00−22˚nnw12800 0.0 102042
20:00−28˚e00830 0.0 102119
21 january, thu
thu2123:00−28˚se11790 0.0 102119
02:00−28˚se12780 0.0 102119
05:00−27˚sse127313 0.0 101919
08:00−23˚sse2274100 0.0 101854
11:00−19˚s1297100 0.3 1016107
14:00−17˚s2394100 0.8 1014211
17:00−17˚ssw1195100 1.1 1014179
20:00−19˚nw3597100 0.4 1016323
22 january, fri
fri2223:00−21˚nw1299100 0.5 101641
02:00−22˚wnw1198100 0.1 101623
05:00−24˚nnw1299100 0.2 101743
08:00−25˚nnw1198100 0.1 101721
11:00−24˚nw1195100 0.1 1017164
14:00−21˚nw368698 0.1 1017929
17:00−22˚nw479099 0.1 1017855
20:00−24˚nnw2699100 0.1 1018286